BREEZE-M DEB (TANK), 42936

Orbit data source: Space-Track

BREEZE-M DEB (TANK), 42936 is space debris in HEO originally from a launch on Mon, 11 Sep 2017 UTC launched from the Tyuratam Missile And Space Complex (TTMTR). Debris objects in space refer to the collection of defunct objects orbiting the Earth. Examples of debris include non-operational satellites, rocket bodies, and fragments generated from explosions, collisions, or faulty payload assembly.

Loading next visibility...
Identifier
42936, 2017-053C
Orbit
HEO
Country
Flag of CISCIS
Related business
Manufacturer
Khrunichev
Mission
Spacecraft
Bus & Motor
BRIZ TANK, Unknown motor
Mass
~1,000 kg wet, 1,000 kg dry
Launch date (UTC)
2017-09-11 (9 years ago)
Launch vehicle
Unknown
Launch site
Tyuratam Missile And Space Complex (TTMTR)
Object type
Payload
Rocket body
Debris
Shape & HBR
Torus, 2.0 m
Radar Cross Section
8.218 m², Large (>1 m²)

Expand to show TLE details & history
Last TLE update: 2 days ago

TLE from 2 days ago
0 BREEZE-M DEB (TANK)
1 42936U 17053C   26171.27728953  .00001842  00000-0  43090-3 0  9994
2 42936  49.4626 261.1161 5091555   8.4950 357.6391  5.44416773170048
Epoch: 2026-06-20T06:39Z
TLE epoch observation values (Epoch: 2026-06-20T06:39:17.815Z)
Latitude
-0.00008°
Longitude
-107.19976°
Altitude
343.204 km
Speed
9.456 km/s
True Right ascension
17h 24m 28s
True Declination
0° 00' 00"
Sunlit
Object was in full shadow at epoch
Visualization orbit readout
Latitude
Unknown
Longitude
Unknown
Altitude
Unknown
Speed
Unknown
Apparent Right ascension
Unknown
Apparent Declination
Unknown
Sunlit
N/A
Visualization observer readout
Local Sidereal Time
21:38:28
Azimuth
Unknown
Elevation
Unknown
Doppler factor
Unknown
Orbital elements
Apogee altitude
14,221.993 km
Perigee altitude
321.942 km
Semi-major axis
13,650.104 km
Eccentricity
0.50916
Inclination
49.4626°
RAAN
261.1161°
Arg. of periapsis
8.495°
True anomaly
351.58654°
Mean anomaly
357.6391°
Eccentric anomaly
355.19596°
Mean motion
1.36094 °/min
Orbital period
264.52 mins
BSTAR
0.0004309
Loading maneuver chart data...
Computing Atmospheric mass density...
Loading historical data...
Loading historical data...
Loading historical data...
Loading historical data...
Loading historical data...
Loading historical data...
Loading historical data...
Other satellites on launch #53 in the year 2017 (2017-09-11 UTC)

Documentation

Showing up to 5 results
|